Lid_Strength_Index
6 5 4 4 4 3 2 3 4 3 5 5 2 2 2 2 1 1 1 2 2 1 1 0 1 1 1 1 2 2 2 2 3 3 3 3 1 1 1 1 1 1 1
7 6 5 4 4 6 5 6 4 3 2 3 4 2 2 2 1 1 0 1 1 1 1 1 1 1 1 2 2 2 2 2 2 3 4 5 4 2 1 1 1 1 1
7 6 5 5 4 4 3 3 3 3 2 2 2 2 2 2 2 3 2 1 -0 0 1 1 1 1 1 1 1 1 2 3 3 2 3 6 7 5 2 2 1 2 2
6 6 5 4 3 4 3 3 2 2 3 2 3 3 3 4 3 2 1 2 1 0 0 1 1 2 2 1 1 1 1 2 3 3 2 2 3 6 6 3 2 2 2
7 6 6 5 4 4 4 4 4 3 3 2 3 3 3 3 3 2 3 2 1 0 0 0 3 3 1 1 1 1 1 1 2 3 3 3 2 3 4 6 4 3 2
6 6 6 5 4 4 4 4 4 3 3 2 2 2 3 3 3 3 3 2 3 1 1 0 3 3 3 2 1 1 1 1 1 2 2 4 4 5 4 6 4 4 3
8 7 7 7 6 6 5 5 5 4 4 4 3 4 4 2 3 3 2 3 3 3 3 2 1 1 1 1 2 2 1 1 2 2 2 4 4 4 4 4 5 5 4
8 8 8 7 6 6 6 5 5 5 5 4 4 4 3 3 3 3 2 2 2 2 2 2 1 1 1 0 1 1 2 2 2 3 2 3 6 4 2 3 5 6 4
8 8 7 7 7 6 6 6 6 6 5 5 5 4 4 4 4 3 3 3 2 1 1 1 1 1 1 1 1 1 2 3 4 2 2 3 3 2 1 2 3 4 6
8 7 7 7 8 8 8 7 6 6 5 5 5 5 4 5 4 4 3 3 3 2 2 1 1 1 1 2 2 2 2 5 5 3 3 3 3 3 2 3 3 3 4
7 8 7 7 8 7 7 7 7 6 5 5 5 5 4 5 4 5 4 3 2 2 2 1 1 1 2 1 3 3 3 5 6 4 3 3 3 3 2 2 2 2 2
6 6 7 7 6 6 7 8 8 6 6 5 5 5 5 4 5 4 3 3 3 3 2 1 1 1 1 1 2 3 4 4 5 4 4 3 3 3 2 2 2 2 2
6 6 7 7 8 8 8 7 7 7 7 6 6 6 6 5 3 4 4 3 3 4 3 1 1 1 1 1 1 2 2 3 3 3 3 4 4 3 3 2 2 3 3
7 7 8 8 7 6 7 7 7 7 6 6 6 6 6 6 5 4 3 3 3 2 2 2 1 1 1 1 1 1 2 2 3 2 3 2 3 3 3 2 2 2 4
8 8 8 8 8 7 7 7 7 6 6 6 6 6 5 5 5 5 5 4 3 2 2 2 1 1 1 1 2 2 2 2 3 3 3 3 2 2 2 2 3 3 4
8 7 7 7 7 7 7 6 7 6 6 6 6 6 6 6 6 6 6 6 5 4 3 3 2 2 1 3 4 3 2 2 2 2 2 2 2 2 3 3 4 3 3
7 7 7 7 8 8 7 8 7 6 6 6 6 6 6 7 7 6 6 6 7 6 6 5 3 2 2 3 5 5 2 2 2 3 2 2 1 2 1 3 5 6 6
8 8 8 8 8 8 7 7 7 7 7 7 7 7 7 7 7 7 7 7 7 7 7 6 5 5 3 3 4 5 3 2 2 1 2 2 2 2 3 4 6 6 7
9 9 8 8 7 8 8 8 8 8 9 9 9 9 8 9 9 8 7 6 7 7 7 6 5 5 3 4 5 6 3 2 2 1 2 2 2 5 8 6 7 7 7
8 7 8 8 8 8 8 9 9 9 10 10 10 10 10 10 9 8 6 6 7 6 6 6 5 5 4 4 5 5 2 3 2 2 2 5 3 8 8 5 7 6 4
8 8 9 9 10 10 10 10 10 11 11 10 10 11 10 11 10 9 8 5 6 6 6 7 6 5 4 4 5 6 2 2 2 2 2 2 8 9 8 6 3 4 2
9 9 10 10 9 9 10 11 12 12 11 11 12 12 11 10 10 9 8 6 6 6 6 6 6 5 5 5 5 7 6 4 2 2 2 3 7 9 9 7 6 7 4
10 10 10 10 11 11 11 13 12 12 13 13 13 13 12 12 11 11 9 7 7 7 7 7 7 6 5 5 6 7 7 7 2 1 3 5 7 9 10 10 9 9 3
10 11 11 12 12 12 13 13 13 14 14 14 14 13 13 13 12 11 11 10 9 9 8 7 6 6 5 6 4 5 5 7 5 4 3 4 4 7 7 6 6 4 4
11 12 13 13 14 14 14 14 14 15 15 15 14 14 14 13 13 12 12 11 9 8 7 7 6 6 6 6 6 6 4 3 5 5 2 4 4 5 5 5 4 4 3
13 14 14 14 15 15 16 15 15 15 16 16 15 14 14 13 13 12 12 11 11 11 11 9 7 5 8 8 9 9 9 9 9 5 4 4 4 4 4 4 5 5 5